| time (UTC) | temp F | wind direction | speed MPH | gust MPH | rain 1hr in | rain 24hr in | rain mn in | humidity % | barometer mb |
| 20260505124030 | 54 | 20 | 3.0 | 7.0 | 0.00 | 0.08 | 0.04 | 86 | 1009.9 |
| 20260505123921 | 54 | 26 | 2.0 | 7.0 | 0.00 | 0.08 | 0.00 | 86 | 1009.8 |
| 20260505123507 | 54 | 35 | 3.0 | 6.0 | 0.00 | 0.08 | 0.04 | 86 | 1009.9 |
| 20260505123410 | 54 | 86 | 3.0 | 6.0 | 0.00 | 0.08 | 0.00 | 86 | 1009.9 |
| 20260505123006 | 54 | 31 | 3.0 | 8.0 | 0.00 | 0.08 | 0.04 | 86 | 1010.0 |
| 20260505122917 | 54 | 67 | 3.0 | 8.0 | 0.00 | 0.08 | 0.00 | 86 | 1009.9 |
| 20260505122527 | 54 | 31 | 3.0 | 8.0 | 0.00 | 0.08 | 0.04 | 86 | 1010.0 |
| 20260505122412 | 54 | 24 | 3.0 | 8.0 | 0.00 | 0.08 | 0.00 | 86 | 1009.9 |
| 20260505122112 | 53 | 44 | 3.0 | 10.0 | 0.00 | 0.08 | 0.00 | 88 | 1010.1 |
| 20260505122007 | 54 | 37 | 3.0 | 7.0 | 0.00 | 0.08 | 0.04 | 86 | 1009.9 |
| 20260505121946 | 53 | 51 | 3.0 | 8.0 | 0.00 | 0.08 | 0.00 | 86 | 1009.9 |
| 20260505121905 | 54 | 95 | 3.0 | 9.0 | 0.00 | 0.08 | 0.00 | 86 | 1009.9 |
| 20260505121609 | 53 | 42 | 3.0 | 9.0 | 0.00 | 0.08 | 0.00 | 86 | 1010.0 |
| 20260505121528 | 54 | 31 | 3.0 | 9.0 | 0.00 | 0.08 | 0.04 | 86 | 1010.0 |
| 20260505121007 | 54 | 29 | 3.0 | 9.0 | 0.00 | 0.08 | 0.04 | 87 | 1010.0 |
| 20260505120507 | 53 | 30 | 3.0 | 7.0 | 0.00 | 0.08 | 0.04 | 87 | 1010.1 |
| 20260505120433 | 53 | 42 | 3.0 | 6.0 | 0.00 | 0.08 | 0.00 | 87 | 1010.0 |
| 20260505120119 | 53 | 30 | 4.0 | 9.0 | 0.00 | 0.08 | 0.00 | 87 | 1010.1 |
| 20260505120028 | 53 | 28 | 3.0 | 9.0 | 0.00 | 0.08 | 0.04 | 87 | 1010.1 |
| 20260505115528 | 53 | 35 | 3.0 | 9.0 | 0.00 | 0.08 | 0.04 | 87 | 1010.1 |
| 20260505115414 | 53 | 9 | 4.0 | 9.0 | 0.00 | 0.08 | 0.00 | 87 | 1010.1 |
| 20260505115028 | 53 | 36 | 4.0 | 10.0 | 0.00 | 0.08 | 0.04 | 87 | 1010.1 |
| 20260505114542 | 53 | 13 | 4.0 | 11.0 | 0.00 | 0.08 | 0.00 | 88 | 1010.1 |
| 20260505114506 | 53 | 28 | 3.0 | 10.0 | 0.00 | 0.08 | 0.04 | 88 | 1010.1 |
| 20260505114409 | 53 | 28 | 3.0 | 10.0 | 0.00 | 0.08 | 0.00 | 88 | 1010.1 |
| 20260505114007 | 53 | 28 | 4.0 | 9.0 | 0.00 | 0.08 | 0.04 | 88 | 1010.2 |
| 20260505113507 | 53 | 31 | 5.0 | 11.0 | 0.00 | 0.08 | 0.04 | 88 | 1010.1 |
| 20260505113355 | 53 | 29 | 5.0 | 11.0 | 0.00 | 0.08 | 0.00 | 88 | 1010.2 |
| 20260505113007 | 53 | 29 | 5.0 | 11.0 | 0.00 | 0.08 | 0.04 | 89 | 1010.3 |
| 20260505112846 | 53 | 29 | 4.0 | 11.0 | 0.00 | 0.08 | 0.00 | 89 | 1010.2 |
| 20260505112714 | 52 | 32 | 4.0 | 9.0 | 0.00 | 0.08 | 0.00 | 91 | 1010.2 |
| 20260505112507 | 53 | 27 | 4.0 | 11.0 | 0.00 | 0.08 | 0.04 | 89 | 1010.3 |
| 20260505112453 | 53 | 5 | 4.0 | 9.0 | 0.00 | 0.08 | 0.00 | 90 | 1010.2 |
| 20260505112007 | 53 | 30 | 3.0 | 9.0 | 0.00 | 0.08 | 0.04 | 90 | 1010.2 |
| 20260505111923 | 53 | 43 | 3.0 | 5.0 | 0.00 | 0.08 | 0.00 | 90 | 1010.2 |
| 20260505111508 | 53 | 30 | 3.0 | 5.0 | 0.00 | 0.08 | 0.04 | 91 | 1010.2 |
| 20260505111351 | 53 | 26 | 3.0 | 9.0 | 0.00 | 0.08 | 0.00 | 91 | 1010.2 |
| 20260505111009 | 52 | 34 | 4.0 | 9.0 | 0.00 | 0.08 | 0.04 | 91 | 1010.3 |
| 20260505110506 | 52 | 32 | 4.0 | 9.0 | 0.00 | 0.08 | 0.04 | 91 | 1010.3 |
| 20260505110452 | 52 | 26 | 4.0 | 10.0 | 0.00 | 0.08 | 0.00 | 92 | 1010.3 |
| 20260505110413 | 52 | 355 | 4.0 | 8.0 | 0.00 | 0.08 | 0.00 | 91 | 1010.3 |
| 20260505102007 | 51 | 22 | 5.0 | 11.0 | 0.00 | 0.08 | 0.04 | 93 | 1010.4 |
| 20260505101841 | 51 | 25 | 5.0 | 10.0 | 0.00 | 0.08 | 0.00 | 94 | 1010.4 |
| 20260505101508 | 51 | 24 | 5.0 | 9.0 | 0.00 | 0.08 | 0.04 | 94 | 1010.4 |
| 20260505101341 | 51 | 25 | 5.0 | 9.0 | 0.00 | 0.08 | 0.00 | 94 | 1010.4 |
| 20260505101007 | 51 | 27 | 4.0 | 9.0 | 0.00 | 0.08 | 0.04 | 94 | 1010.5 |
| 20260505100853 | 51 | 20 | 4.0 | 11.0 | 0.00 | 0.08 | 0.00 | 94 | 1010.5 |
| 20260505100836 | 51 | 38 | 4.0 | 9.0 | 0.00 | 0.08 | 0.00 | 94 | 1010.5 |
| 20260505100506 | 50 | 26 | 4.0 | 11.0 | 0.00 | 0.08 | 0.04 | 94 | 1010.5 |
| 20260505100028 | 50 | 25 | 5.0 | 11.0 | 0.00 | 0.08 | 0.04 | 94 | 1010.6 |
| 20260505095919 | 50 | 30 | 5.0 | 11.0 | 0.00 | 0.08 | 0.00 | 94 | 1010.5 |
| 20260505095844 | 50 | 355 | 5.0 | 11.0 | 0.00 | 0.08 | 0.00 | 94 | 1010.5 |
| 20260505095506 | 50 | 23 | 5.0 | 11.0 | 0.00 | 0.08 | 0.04 | 94 | 1010.6 |
| 20260505095028 | 50 | 22 | 5.0 | 11.0 | 0.00 | 0.09 | 0.04 | 94 | 1010.6 |
| 20260505094844 | 50 | 355 | 4.0 | 9.0 | 0.00 | 0.09 | 0.00 | 94 | 1010.6 |
| 20260505094506 | 50 | 23 | 4.0 | 9.0 | 0.00 | 0.09 | 0.04 | 94 | 1010.6 |
| 20260505094330 | 50 | 26 | 3.0 | 8.0 | 0.00 | 0.09 | 0.00 | 94 | 1010.6 |
| 20260505094008 | 50 | 23 | 4.0 | 8.0 | 0.00 | 0.09 | 0.04 | 94 | 1010.7 |
| 20260505093832 | 50 | 28 | 4.0 | 8.0 | 0.00 | 0.09 | 0.00 | 94 | 1010.6 |
| 20260505093527 | 50 | 22 | 4.0 | 8.0 | 0.00 | 0.09 | 0.04 | 94 | 1010.6 |
| 20260505093333 | 50 | 34 | 4.0 | 9.0 | 0.00 | 0.09 | 0.00 | 94 | 1010.6 |
| 20260505093006 | 50 | 22 | 5.0 | 9.0 | 0.00 | 0.10 | 0.04 | 94 | 1010.5 |
| 20260505092833 | 50 | 48 | 4.0 | 9.0 | 0.00 | 0.10 | 0.00 | 94 | 1010.6 |
| 20260505092506 | 50 | 23 | 4.0 | 9.0 | 0.00 | 0.10 | 0.04 | 94 | 1010.7 |
| 20260505092334 | 50 | 29 | 4.0 | 9.0 | 0.00 | 0.10 | 0.00 | 94 | 1010.7 |
| 20260505092008 | 50 | 22 | 3.0 | 8.0 | 0.00 | 0.10 | 0.04 | 94 | 1010.7 |
| 20260505091837 | 50 | 30 | 3.0 | 8.0 | 0.00 | 0.10 | 0.00 | 94 | 1010.6 |
| 20260505091506 | 50 | 28 | 3.0 | 7.0 | 0.00 | 0.10 | 0.04 | 94 | 1010.6 |
| 20260505091331 | 50 | 30 | 4.0 | 8.0 | 0.00 | 0.10 | 0.00 | 94 | 1010.6 |
| 20260505091006 | 50 | 32 | 4.0 | 9.0 | 0.00 | 0.10 | 0.04 | 94 | 1010.6 |
| 20260505090831 | 50 | 67 | 4.0 | 9.0 | 0.00 | 0.10 | 0.00 | 94 | 1010.7 |
| 20260505090527 | 50 | 31 | 4.0 | 9.0 | 0.00 | 0.10 | 0.04 | 94 | 1010.7 |
| 20260505090330 | 50 | 36 | 4.0 | 12.0 | 0.00 | 0.10 | 0.00 | 94 | 1010.6 |
| 20260505090007 | 50 | 33 | 4.0 | 12.0 | 0.00 | 0.10 | 0.04 | 94 | 1010.7 |
| 20260505085829 | 50 | 35 | 4.0 | 12.0 | 0.00 | 0.10 | 0.00 | 94 | 1010.6 |
| 20260505085506 | 50 | 29 | 4.0 | 12.0 | 0.00 | 0.10 | 0.04 | 94 | 1010.7 |
| 20260505085338 | 50 | 0 | 4.0 | 11.0 | 0.00 | 0.00 | 0.00 | 94 | 1010.6 |
| 20260505085028 | 50 | 29 | 4.0 | 11.0 | 0.00 | 0.10 | 0.04 | 94 | 1010.7 |
| 20260505084842 | 50 | 15 | 4.0 | 11.0 | 0.00 | 0.00 | 0.00 | 94 | 1010.7 |
| 20260505084506 | 50 | 30 | 4.0 | 9.0 | 0.00 | 0.10 | 0.04 | 94 | 1010.8 |
| 20260505084328 | 50 | 25 | 5.0 | 9.0 | 0.00 | 0.00 | 0.00 | 94 | 1010.7 |
| 20260505084310 | 50 | 25 | 5.0 | 12.0 | 0.00 | 0.00 | 0.00 | 94 | 1010.8 |
| 20260505084028 | 50 | 29 | 5.0 | 12.0 | 0.00 | 0.10 | 0.04 | 94 | 1010.7 |
| 20260505083651 | 50 | 61 | 4.0 | 10.0 | 0.00 | 0.00 | 0.00 | 94 | 1010.7 |
| 20260505083507 | 50 | 35 | 4.0 | 12.0 | 0.00 | 0.10 | 0.04 | 94 | 1010.8 |
| 20260505083448 | 50 | 22 | 4.0 | 12.0 | 0.00 | 0.00 | 0.00 | 94 | 1010.7 |
| 20260505083050 | 50 | 42 | 5.0 | 11.0 | 0.00 | 0.00 | 0.00 | 94 | 1010.6 |
| 20260505083032 | 50 | 5 | 4.0 | 11.0 | 0.00 | 0.00 | 0.00 | 94 | 1010.6 |
| 20260505083007 | 50 | 32 | 5.0 | 10.0 | 0.00 | 0.10 | 0.04 | 94 | 1010.7 |
| 20260505082917 | 50 | 61 | 4.0 | 10.0 | 0.00 | 0.00 | 0.00 | 94 | 1010.7 |
| 20260505082506 | 50 | 25 | 5.0 | 10.0 | 0.00 | 0.10 | 0.04 | 94 | 1010.5 |
| 20260505082006 | 50 | 25 | 5.0 | 11.0 | 0.00 | 0.10 | 0.04 | 94 | 1010.6 |
| 20260505081551 | 50 | 17 | 4.0 | 11.0 | 0.00 | 0.00 | 0.00 | 94 | 1010.7 |
| 20260505081546 | 50 | 26 | 4.0 | 11.0 | 0.00 | 0.00 | 0.00 | 94 | 1010.7 |
| 20260505081506 | 50 | 23 | 4.0 | 11.0 | 0.00 | 0.10 | 0.04 | 94 | 1010.6 |
| 20260505081358 | 50 | 28 | 4.0 | 10.0 | 0.00 | 0.00 | 0.00 | 94 | 1010.6 |
| 20260505081029 | 50 | 23 | 4.0 | 11.0 | 0.00 | 0.10 | 0.04 | 94 | 1010.7 |
| 20260505080506 | 50 | 28 | 4.0 | 11.0 | 0.00 | 0.10 | 0.04 | 94 | 1010.7 |
| 20260505080006 | 50 | 28 | 4.0 | 10.0 | 0.00 | 0.10 | 0.04 | 94 | 1010.7 |
| 20260505075822 | 50 | 54 | 4.0 | 10.0 | 0.00 | 0.00 | 0.00 | 94 | 1010.6 |
| 20260505075637 | 50 | 43 | 5.0 | 14.0 | 0.00 | 0.00 | 0.00 | 94 | 1010.6 |
| 20260505075609 | 50 | 49 | 5.0 | 14.0 | 0.00 | 0.00 | 0.00 | 94 | 1010.5 |
| 20260505075506 | 50 | 27 | 5.0 | 10.0 | 0.00 | 0.10 | 0.04 | 94 | 1010.6 |
| 20260505075410 | 50 | 15 | 5.0 | 10.0 | 0.00 | 0.00 | 0.00 | 94 | 1010.5 |
| 20260505075007 | 50 | 30 | 5.0 | 10.0 | 0.00 | 0.10 | 0.04 | 94 | 1010.6 |
| 20260505074506 | 50 | 29 | 5.0 | 14.0 | 0.00 | 0.10 | 0.04 | 94 | 1010.6 |
| 20260505074007 | 50 | 31 | 5.0 | 14.0 | 0.00 | 0.10 | 0.04 | 94 | 1010.6 |
| 20260505073819 | 50 | 49 | 4.0 | 10.0 | 0.00 | 0.00 | 0.00 | 94 | 1010.5 |
| 20260505073540 | 50 | 355 | 4.0 | 10.0 | 0.00 | 0.00 | 0.00 | 94 | 1010.6 |
| 20260505073506 | 50 | 30 | 4.0 | 10.0 | 0.00 | 0.10 | 0.04 | 94 | 1010.6 |
| 20260505073027 | 50 | 25 | 4.0 | 10.0 | 0.00 | 0.10 | 0.04 | 94 | 1010.6 |
| 20260505072819 | 50 | 28 | 4.0 | 10.0 | 0.00 | 0.00 | 0.00 | 94 | 1010.5 |
| 20260505072506 | 50 | 29 | 4.0 | 10.0 | 0.00 | 0.10 | 0.04 | 94 | 1010.6 |
| 20260505072314 | 50 | 47 | 3.0 | 10.0 | 0.00 | 0.00 | 0.00 | 94 | 1010.5 |
| 20260505072006 | 50 | 36 | 3.0 | 5.0 | 0.00 | 0.10 | 0.04 | 94 | 1010.5 |
| 20260505071822 | 50 | 20 | 3.0 | 7.0 | 0.00 | 0.00 | 0.00 | 94 | 1010.6 |
| 20260505071542 | 50 | 266 | 3.0 | 10.0 | 0.00 | 0.00 | 0.00 | 94 | 1010.6 |
| 20260505071506 | 50 | 33 | 3.0 | 7.0 | 0.00 | 0.10 | 0.04 | 94 | 1010.6 |
| 20260505071418 | 50 | 38 | 3.0 | 8.0 | 0.00 | 0.00 | 0.00 | 94 | 1010.6 |
| 20260505071006 | 50 | 27 | 3.0 | 8.0 | 0.00 | 0.10 | 0.04 | 94 | 1010.6 |
| 20260505070507 | 50 | 24 | 4.0 | 10.0 | 0.00 | 0.10 | 0.04 | 94 | 1010.6 |
| 20260505070317 | 50 | 15 | 4.0 | 10.0 | 0.00 | 0.00 | 0.00 | 94 | 1010.6 |
| 20260505070007 | 50 | 20 | 5.0 | 11.0 | 0.00 | 0.10 | 0.04 | 94 | 1010.7 |
| 20260505065826 | 50 | 10 | 5.0 | 12.0 | 0.00 | 0.00 | 0.00 | 94 | 1010.6 |
| 20260505065506 | 50 | 20 | 5.0 | 12.0 | 0.00 | 0.10 | 0.04 | 94 | 1010.7 |
| 20260505065314 | 50 | 15 | 5.0 | 12.0 | 0.00 | 0.00 | 0.00 | 94 | 1010.7 |
| 20260505065006 | 50 | 26 | 5.0 | 12.0 | 0.00 | 0.10 | 0.04 | 94 | 1010.6 |
| 20260505064810 | 50 | 29 | 5.0 | 11.0 | 0.00 | 0.00 | 0.00 | 94 | 1010.6 |
| 20260505064508 | 50 | 27 | 6.0 | 11.0 | 0.00 | 0.10 | 0.04 | 94 | 1010.7 |
| 20260505064320 | 50 | 22 | 6.0 | 11.0 | 0.00 | 0.00 | 0.00 | 94 | 1010.6 |
| 20260505064007 | 50 | 23 | 6.0 | 11.0 | 0.00 | 0.10 | 0.04 | 94 | 1010.6 |
| 20260505063809 | 50 | 49 | 6.0 | 11.0 | 0.00 | 0.00 | 0.00 | 94 | 1010.5 |
| 20260505063506 | 50 | 21 | 5.0 | 11.0 | 0.00 | 0.10 | 0.04 | 94 | 1010.7 |
| 20260505063315 | 50 | 32 | 5.0 | 12.0 | 0.00 | 0.00 | 0.00 | 94 | 1010.7 |
| 20260505063027 | 50 | 22 | 6.0 | 12.0 | 0.00 | 0.10 | 0.04 | 94 | 1010.7 |
| 20260505062812 | 50 | 56 | 6.0 | 12.0 | 0.00 | 0.00 | 0.00 | 94 | 1010.7 |
| 20260505062505 | 50 | 24 | 6.0 | 12.0 | 0.00 | 0.10 | 0.04 | 94 | 1010.7 |
| 20260505062313 | 50 | 5 | 6.0 | 11.0 | 0.00 | 0.00 | 0.00 | 94 | 1010.7 |
| 20260505062027 | 50 | 19 | 6.0 | 11.0 | 0.00 | 0.10 | 0.04 | 94 | 1010.7 |
| 20260505061809 | 50 | 36 | 5.0 | 11.0 | 0.00 | 0.00 | 0.00 | 94 | 1010.7 |
| 20260505061506 | 50 | 20 | 5.0 | 13.0 | 0.00 | 0.10 | 0.04 | 94 | 1010.7 |
| 20260505061302 | 50 | 15 | 5.0 | 13.0 | 0.00 | 0.00 | 0.00 | 94 | 1010.7 |
| 20260505061006 | 50 | 22 | 5.0 | 13.0 | 0.00 | 0.10 | 0.04 | 94 | 1010.8 |
| 20260505060804 | 50 | 44 | 5.0 | 13.0 | 0.00 | 0.00 | 0.00 | 94 | 1010.7 |
| 20260505060507 | 50 | 17 | 5.0 | 11.0 | 0.00 | 0.10 | 0.04 | 94 | 1010.8 |
| 20260505060301 | 50 | 12 | 6.0 | 12.0 | 0.00 | 0.00 | 0.00 | 94 | 1010.8 |
| 20260505060027 | 50 | 18 | 6.0 | 12.0 | 0.00 | 0.10 | 0.04 | 94 | 1010.9 |
| 20260505055758 | 50 | 26 | 5.0 | 12.0 | 0.00 | 0.00 | 0.00 | 94 | 1010.8 |
| 20260505055642 | 51 | 12 | 4.0 | 10.0 | 0.00 | 0.00 | 0.00 | 94 | 1010.5 |
| 20260505055546 | 50 | 5 | 5.0 | 12.0 | 0.00 | 0.00 | 0.00 | 94 | 1010.9 |
| 20260505055506 | 50 | 18 | 4.0 | 12.0 | 0.00 | 0.10 | 0.04 | 94 | 1010.9 |
| 20260505055334 | 50 | 46 | 4.0 | 12.0 | 0.00 | 0.00 | 0.00 | 94 | 1010.8 |
| 20260505055006 | 50 | 16 | 4.0 | 12.0 | 0.00 | 0.10 | 0.04 | 94 | 1010.9 |
| 20260505054751 | 51 | 30 | 4.0 | 10.0 | 0.00 | 0.00 | 0.00 | 94 | 1010.8 |
| 20260505054741 | 51 | 13 | 4.0 | 10.0 | 0.00 | 0.00 | 0.00 | 94 | 1010.7 |
| 20260505054506 | 50 | 16 | 4.0 | 9.0 | 0.00 | 0.10 | 0.04 | 94 | 1010.8 |
| 20260505054304 | 50 | 33 | 4.0 | 9.0 | 0.00 | 0.00 | 0.00 | 94 | 1010.8 |
| 20260505054118 | 51 | 17 | 3.0 | 7.0 | 0.00 | 0.00 | 0.00 | 94 | 1010.6 |
| 20260505054041 | 51 | 25 | 4.0 | 8.0 | 0.00 | 0.00 | 0.00 | 94 | 1010.7 |
| 20260505054026 | 51 | 42 | 4.0 | 10.0 | 0.00 | 0.00 | 0.00 | 94 | 1010.6 |
| 20260505054006 | 50 | 22 | 4.0 | 9.0 | 0.00 | 0.10 | 0.04 | 94 | 1010.9 |
| 20260505053838 | 50 | 17 | 4.0 | 9.0 | 0.00 | 0.00 | 0.00 | 94 | 1010.8 |
| 20260505053506 | 50 | 26 | 4.0 | 9.0 | 0.00 | 0.10 | 0.04 | 94 | 1010.8 |
| 20260505053357 | 51 | 32 | 3.0 | 9.0 | 0.00 | 0.00 | 0.00 | 94 | 1010.4 |
| 20260505053323 | 50 | 18 | 4.0 | 9.0 | 0.00 | 0.00 | 0.00 | 94 | 1010.7 |
| 20260505053006 | 50 | 23 | 4.0 | 10.0 | 0.00 | 0.10 | 0.04 | 94 | 1010.8 |
| 20260505052956 | 51 | 34 | 4.0 | 10.0 | 0.00 | 0.00 | 0.00 | 94 | 1010.8 |
| 20260505052527 | 50 | 23 | 4.0 | 10.0 | 0.00 | 0.10 | 0.04 | 94 | 1010.8 |
| 20260505052028 | 50 | 24 | 4.0 | 10.0 | 0.00 | 0.10 | 0.04 | 94 | 1010.8 |
| 20260505051642 | 51 | 27 | 3.0 | 10.0 | 0.00 | 0.00 | 0.00 | 94 | 1010.7 |
| 20260505051506 | 50 | 22 | 4.0 | 10.0 | 0.00 | 0.10 | 0.04 | 94 | 1010.8 |
| 20260505050506 | 51 | 29 | 3.0 | 8.0 | 0.00 | 0.10 | 0.04 | 94 | 1010.7 |
| 20260505041748 | 51 | 350 | 4.0 | 9.0 | 0.00 | 0.00 | 0.00 | 94 | 1010.3 |
| 20260505041506 | 51 | 18 | 4.0 | 8.0 | 0.00 | 0.10 | 0.04 | 93 | 1010.3 |
| 20260505041006 | 51 | 18 | 4.0 | 8.0 | 0.00 | 0.10 | 0.04 | 93 | 1010.3 |
| 20260505040754 | 51 | 30 | 4.0 | 11.0 | 0.00 | 0.00 | 0.00 | 93 | 1010.3 |
| 20260505040735 | 51 | 13 | 4.0 | 11.0 | 0.00 | 0.00 | 0.00 | 93 | 1010.2 |
| 20260505040506 | 51 | 21 | 4.0 | 11.0 | 0.00 | 0.10 | 0.04 | 93 | 1010.4 |
| 20260505040008 | 51 | 22 | 5.0 | 11.0 | 0.00 | 0.10 | 0.04 | 93 | 1010.4 |
| 20260505035739 | 51 | 30 | 4.0 | 11.0 | 0.00 | 0.00 | 0.00 | 93 | 1010.3 |
| 20260505035506 | 51 | 22 | 4.0 | 11.0 | 0.00 | 0.10 | 0.04 | 93 | 1010.4 |
| 20260505035319 | 51 | 19 | 4.0 | 10.0 | 0.00 | 0.00 | 0.00 | 93 | 1010.4 |
| 20260505035250 | 51 | 24 | 4.0 | 11.0 | 0.00 | 0.00 | 0.00 | 93 | 1010.3 |
| 20260505035007 | 51 | 22 | 4.0 | 9.0 | 0.00 | 0.10 | 0.04 | 93 | 1010.3 |
| 20260505034506 | 51 | 24 | 5.0 | 10.0 | 0.00 | 0.10 | 0.04 | 93 | 1010.4 |
| 20260505034235 | 51 | 36 | 5.0 | 10.0 | 0.00 | 0.00 | 0.00 | 93 | 1010.4 |
| 20260505034027 | 52 | 24 | 4.0 | 10.0 | 0.00 | 0.10 | 0.04 | 93 | 1010.4 |
| 20260505033731 | 51 | 17 | 4.0 | 10.0 | 0.01 | 0.00 | 0.00 | 93 | 1010.4 |
| 20260505033646 | 52 | 38 | 5.0 | 11.0 | 0.01 | 0.00 | 0.00 | 93 | 1010.4 |
| 20260505033506 | 52 | 22 | 4.0 | 11.0 | 0.01 | 0.10 | 0.04 | 93 | 1010.4 |
| 20260505033237 | 51 | 39 | 4.0 | 11.0 | 0.01 | 0.00 | 0.00 | 93 | 1010.4 |
| 20260505033008 | 52 | 22 | 5.0 | 11.0 | 0.01 | 0.10 | 0.04 | 93 | 1010.4 |
| 20260505032506 | 52 | 24 | 5.0 | 11.0 | 0.01 | 0.10 | 0.04 | 93 | 1010.4 |
| 20260505032232 | 52 | 37 | 5.0 | 11.0 | 0.01 | 0.00 | 0.00 | 93 | 1010.4 |
| 20260505032027 | 52 | 24 | 5.0 | 11.0 | 0.01 | 0.10 | 0.04 | 93 | 1010.5 |
| 20260505031736 | 52 | 28 | 5.0 | 10.0 | 0.02 | 0.00 | 0.00 | 93 | 1010.5 |
| 20260505031505 | 52 | 21 | 5.0 | 10.0 | 0.02 | 0.10 | 0.04 | 93 | 1010.6 |
| 20260505031237 | 52 | 28 | 4.0 | 11.0 | 0.02 | 0.00 | 0.00 | 93 | 1010.5 |
| 20260505031006 | 52 | 19 | 4.0 | 11.0 | 0.03 | 0.10 | 0.04 | 93 | 1010.6 |
| 20260505030730 | 52 | 5 | 4.0 | 11.0 | 0.03 | 0.00 | 0.00 | 93 | 1010.6 |
| 20260505030527 | 52 | 17 | 4.0 | 11.0 | 0.03 | 0.10 | 0.04 | 93 | 1010.6 |
| 20260505030224 | 52 | 13 | 4.0 | 10.0 | 0.03 | 0.00 | 0.00 | 93 | 1010.6 |
| 20260505030006 | 52 | 14 | 4.0 | 10.0 | 0.03 | 0.10 | 0.04 | 93 | 1010.7 |
| 20260505025716 | 52 | 41 | 4.0 | 9.0 | 0.03 | 0.00 | 0.00 | 93 | 1010.7 |
| 20260505025507 | 52 | 15 | 4.0 | 12.0 | 0.03 | 0.10 | 0.04 | 93 | 1010.7 |
| 20260505025229 | 52 | 344 | 4.0 | 12.0 | 0.03 | 0.00 | 0.00 | 93 | 1010.6 |
| 20260505025007 | 52 | 16 | 4.0 | 12.0 | 0.03 | 0.10 | 0.04 | 93 | 1010.6 |
| 20260505024719 | 52 | 23 | 4.0 | 12.0 | 0.03 | 0.00 | 0.00 | 93 | 1010.6 |
| 20260505024506 | 52 | 15 | 4.0 | 9.0 | 0.03 | 0.10 | 0.04 | 93 | 1010.7 |
| 20260505024224 | 53 | 19 | 4.0 | 10.0 | 0.03 | 0.00 | 0.00 | 93 | 1010.6 |
| 20260505024027 | 53 | 19 | 4.0 | 10.0 | 0.03 | 0.10 | 0.04 | 93 | 1010.6 |
| 20260505023717 | 53 | 72 | 4.0 | 10.0 | 0.02 | 0.00 | 0.00 | 93 | 1010.6 |
| 20260505023507 | 53 | 23 | 4.0 | 10.0 | 0.02 | 0.09 | 0.03 | 93 | 1010.6 |
| 20260505023214 | 53 | 11 | 4.0 | 8.0 | 0.02 | 0.00 | 0.00 | 93 | 1010.5 |
| 20260505023006 | 53 | 26 | 4.0 | 8.0 | 0.02 | 0.09 | 0.03 | 92 | 1010.5 |
| 20260505022727 | 53 | 21 | 4.0 | 8.0 | 0.02 | 0.00 | 0.00 | 92 | 1010.5 |
| 20260505022506 | 53 | 26 | 4.0 | 8.0 | 0.02 | 0.09 | 0.03 | 92 | 1010.5 |
| 20260505022219 | 53 | 61 | 4.0 | 9.0 | 0.02 | 0.00 | 0.00 | 93 | 1010.6 |
| 20260505022006 | 53 | 24 | 5.0 | 10.0 | 0.02 | 0.09 | 0.03 | 93 | 1010.5 |
| 20260505021720 | 53 | 30 | 4.0 | 10.0 | 0.02 | 0.00 | 0.00 | 93 | 1010.5 |
| 20260505021506 | 53 | 23 | 4.0 | 10.0 | 0.01 | 0.08 | 0.02 | 93 | 1010.5 |
| 20260505021253 | 53 | 24 | 4.0 | 10.0 | 0.01 | 0.00 | 0.00 | 92 | 1010.5 |
| 20260505021006 | 53 | 23 | 4.0 | 10.0 | 0.00 | 0.07 | 0.01 | 92 | 1010.5 |
| 20260505020724 | 53 | 39 | 5.0 | 10.0 | 0.00 | 0.00 | 0.00 | 92 | 1010.5 |
| 20260505020528 | 53 | 23 | 5.0 | 10.0 | 0.00 | 0.07 | 0.01 | 92 | 1010.6 |
| 20260505020216 | 53 | 26 | 5.0 | 10.0 | 0.00 | 0.00 | 0.00 | 92 | 1010.5 |
| 20260505020006 | 53 | 21 | 5.0 | 10.0 | 0.00 | 0.07 | 0.01 | 92 | 1010.6 |
| 20260505015708 | 53 | 26 | 5.0 | 10.0 | 0.00 | 0.00 | 0.00 | 92 | 1010.6 |
| 20260505015506 | 54 | 21 | 5.0 | 10.0 | 0.00 | 0.07 | 0.01 | 92 | 1010.6 |
| 20260505015223 | 54 | 37 | 5.0 | 9.0 | 0.00 | 0.00 | 0.00 | 92 | 1010.7 |
| 20260505015007 | 54 | 22 | 4.0 | 9.0 | 0.00 | 0.07 | 0.01 | 92 | 1010.6 |
| 20260505014714 | 54 | 29 | 3.0 | 9.0 | 0.00 | 0.00 | 0.00 | 92 | 1010.6 |
| 20260505014506 | 54 | 26 | 3.0 | 8.0 | 0.00 | 0.07 | 0.01 | 92 | 1010.7 |
| 20260505014453 | 54 | 13 | 3.0 | 8.0 | 0.00 | 0.00 | 0.00 | 92 | 1010.6 |
| 20260505014006 | 54 | 25 | 3.0 | 7.0 | 0.00 | 0.07 | 0.01 | 92 | 1010.8 |
| 20260505013713 | 54 | 22 | 3.0 | 9.0 | 0.00 | 0.00 | 0.00 | 92 | 1010.7 |
| 20260505013505 | 54 | 25 | 3.0 | 9.0 | 0.00 | 0.07 | 0.01 | 92 | 1010.7 |
| 20260505013218 | 54 | 34 | 3.0 | 9.0 | 0.00 | 0.00 | 0.00 | 92 | 1010.8 |
| 20260505013006 | 54 | 25 | 3.0 | 10.0 | 0.00 | 0.07 | 0.01 | 92 | 1010.8 |
| 20260505012939 | 54 | 14 | 4.0 | 10.0 | 0.00 | 0.00 | 0.00 | 92 | 1010.8 |
| 20260505012921 | 54 | 48 | 4.0 | 11.0 | 0.00 | 0.00 | 0.00 | 92 | 1010.8 |
| 20260505012756 | 54 | 39 | 4.0 | 10.0 | 0.00 | 0.00 | 0.00 | 92 | 1010.7 |
| 20260505012507 | 54 | 20 | 4.0 | 10.0 | 0.00 | 0.07 | 0.01 | 92 | 1010.8 |
| 20260505012006 | 54 | 18 | 4.0 | 10.0 | 0.00 | 0.07 | 0.01 | 92 | 1010.9 |
| 20260505011508 | 54 | 14 | 4.0 | 11.0 | 0.00 | 0.07 | 0.01 | 92 | 1010.8 |
| 20260505011209 | 54 | 34 | 4.0 | 13.0 | 0.00 | 0.00 | 0.00 | 92 | 1010.8 |
| 20260505011006 | 54 | 14 | 5.0 | 13.0 | 0.00 | 0.07 | 0.01 | 92 | 1010.9 |
| 20260505010709 | 54 | 349 | 5.0 | 13.0 | 0.00 | 0.00 | 0.00 | 92 | 1010.8 |
| 20260505010546 | 54 | 21 | 5.0 | 10.0 | 0.00 | 0.00 | 0.00 | 92 | 1010.9 |
| 20260505010505 | 54 | 14 | 5.0 | 13.0 | 0.00 | 0.07 | 0.01 | 92 | 1010.9 |
| 20260505010316 | 54 | 12 | 5.0 | 12.0 | 0.00 | 0.00 | 0.00 | 92 | 1010.9 |
| 20260505010007 | 54 | 15 | 5.0 | 12.0 | 0.00 | 0.07 | 0.01 | 92 | 1010.9 |
| 20260505005506 | 54 | 19 | 6.0 | 10.0 | 0.00 | 0.07 | 0.01 | 92 | 1010.9 |
| 20260505005150 | 54 | 28 | 6.0 | 10.0 | 0.00 | 0.00 | 0.00 | 92 | 1010.9 |
| 20260505005028 | 54 | 19 | 6.0 | 11.0 | 0.00 | 0.07 | 0.01 | 92 | 1010.9 |
| 20260505004702 | 54 | 26 | 6.0 | 13.0 | 0.00 | 0.00 | 0.00 | 92 | 1010.9 |
| 20260505004505 | 54 | 20 | 7.0 | 13.0 | 0.00 | 0.07 | 0.01 | 92 | 1011.0 |
| 20260505004147 | 54 | 17 | 7.0 | 13.0 | 0.00 | 0.00 | 0.00 | 92 | 1010.9 |
| 20260505004006 | 54 | 23 | 7.0 | 13.0 | 0.00 | 0.07 | 0.01 | 92 | 1010.9 |
| 20260505003651 | 54 | 30 | 6.0 | 13.0 | 0.00 | 0.00 | 0.00 | 92 | 1010.9 |
| 20260505003506 | 54 | 22 | 6.0 | 13.0 | 0.00 | 0.07 | 0.01 | 92 | 1011.0 |
| 20260505003445 | 55 | 31 | 5.0 | 13.0 | 0.00 | 0.00 | 0.00 | 92 | 1011.0 |
| 20260505003241 | 55 | 0 | 6.0 | 12.0 | 0.00 | 0.00 | 0.00 | 92 | 1010.9 |
| 20260505003007 | 54 | 22 | 6.0 | 13.0 | 0.00 | 0.07 | 0.01 | 92 | 1011.0 |
| 20260505002708 | 55 | 29 | 7.0 | 13.0 | 0.00 | 0.00 | 0.00 | 92 | 1010.9 |
| 20260505002527 | 55 | 21 | 6.0 | 13.0 | 0.00 | 0.07 | 0.01 | 92 | 1010.9 |
| 20260505002029 | 55 | 18 | 5.0 | 13.0 | 0.00 | 0.07 | 0.01 | 92 | 1010.9 |
| 20260505001947 | 55 | 11 | 4.0 | 9.0 | 0.00 | 0.00 | 0.00 | 92 | 1011.0 |
| 20260505001645 | 55 | 11 | 4.0 | 9.0 | 0.00 | 0.00 | 0.00 | 92 | 1011.0 |
| 20260505001528 | 55 | 19 | 4.0 | 8.0 | 0.00 | 0.07 | 0.01 | 92 | 1011.0 |
| 20260505001145 | 55 | 17 | 4.0 | 8.0 | 0.00 | 0.00 | 0.00 | 92 | 1011.0 |
| 20260505001028 | 55 | 17 | 3.0 | 8.0 | 0.00 | 0.07 | 0.01 | 92 | 1011.0 |
| 20260505000640 | 55 | 36 | 4.0 | 9.0 | 0.00 | 0.00 | 0.00 | 92 | 1011.0 |
| 20260505000505 | 55 | 17 | 4.0 | 9.0 | 0.00 | 0.07 | 0.01 | 92 | 1010.9 |
| 20260505000147 | 55 | 0 | 4.0 | 10.0 | 0.00 | 0.00 | 0.00 | 92 | 1010.9 |
| 20260505000007 | 55 | 21 | 4.0 | 10.0 | 0.00 | 0.07 | 0.01 | 92 | 1011.1 |
| 20260504235933 | 55 | 29 | 4.0 | 9.0 | 0.00 | 0.00 | 0.00 | 92 | 1011.0 |
| 20260504235735 | 55 | 10 | 4.0 | 10.0 | 0.00 | 0.00 | 0.00 | 92 | 1011.0 |
| 20260504235505 | 55 | 20 | 4.0 | 10.0 | 0.00 | 0.07 | 0.01 | 92 | 1011.1 |
| 20260504235006 | 56 | 15 | 4.0 | 9.0 | 0.00 | 0.07 | 0.01 | 92 | 1011.1 |
| 20260504234640 | 56 | 5 | 4.0 | 10.0 | 0.00 | 0.00 | 0.00 | 92 | 1011.0 |
| 20260504234506 | 56 | 14 | 5.0 | 10.0 | 0.00 | 0.07 | 0.01 | 92 | 1011.1 |
| 20260504234147 | 56 | 11 | 5.0 | 10.0 | 0.00 | 0.00 | 0.00 | 92 | 1011.2 |
| 20260504234007 | 56 | 16 | 5.0 | 10.0 | 0.00 | 0.07 | 0.01 | 92 | 1011.2 |
| 20260504233640 | 56 | 46 | 4.0 | 10.0 | 0.00 | 0.00 | 0.00 | 92 | 1011.1 |
| 20260504233506 | 56 | 17 | 5.0 | 10.0 | 0.00 | 0.07 | 0.01 | 92 | 1011.2 |
| 20260504233349 | 56 | 5 | 5.0 | 10.0 | 0.00 | 0.00 | 0.00 | 92 | 1011.1 |
| 20260504233226 | 56 | 11 | 4.0 | 10.0 | 0.00 | 0.00 | 0.00 | 92 | 1011.1 |
| 20260504233006 | 56 | 18 | 5.0 | 10.0 | 0.00 | 0.07 | 0.01 | 92 | 1011.1 |
| 20260504232505 | 56 | 19 | 5.0 | 10.0 | 0.00 | 0.07 | 0.01 | 92 | 1011.1 |
| 20260504232140 | 56 | 5 | 5.0 | 10.0 | 0.00 | 0.00 | 0.00 | 92 | 1011.2 |
| 20260504232006 | 56 | 20 | 4.0 | 10.0 | 0.00 | 0.07 | 0.01 | 92 | 1011.2 |
| 20260504231651 | 56 | 0 | 4.0 | 10.0 | 0.00 | 0.00 | 0.00 | 92 | 1011.1 |
| 20260504231522 | 56 | 5 | 3.0 | 10.0 | 0.01 | 0.00 | 0.00 | 92 | 1011.2 |
| 20260504231505 | 56 | 22 | 3.0 | 10.0 | 0.00 | 0.07 | 0.01 | 92 | 1011.2 |
| 20260504231253 | 56 | 0 | 3.0 | 7.0 | 0.01 | 0.00 | 0.00 | 92 | 1011.2 |
| 20260504231006 | 56 | 19 | 3.0 | 10.0 | 0.01 | 0.07 | 0.01 | 92 | 1011.2 |
| 20260504230711 | 56 | 24 | 3.0 | 10.0 | 0.01 | 0.00 | 0.00 | 92 | 1011.3 |
| 20260504230505 | 56 | 13 | 3.0 | 10.0 | 0.01 | 0.07 | 0.01 | 92 | 1011.2 |
| 20260504230006 | 56 | 13 | 3.0 | 7.0 | 0.01 | 0.07 | 0.01 | 92 | 1011.3 |
| 20260504225650 | 56 | 11 | 4.0 | 8.0 | 0.01 | 0.00 | 0.00 | 92 | 1011.3 |
| 20260504225526 | 56 | 18 | 4.0 | 9.0 | 0.01 | 0.07 | 0.01 | 92 | 1011.3 |
| 20260504225135 | 56 | 19 | 4.0 | 9.0 | 0.01 | 0.00 | 0.00 | 92 | 1011.3 |
| 20260504225006 | 56 | 18 | 4.0 | 9.0 | 0.01 | 0.07 | 0.01 | 92 | 1011.4 |
| 20260504224632 | 57 | 342 | 3.0 | 9.0 | 0.01 | 0.00 | 0.00 | 92 | 1011.4 |
| 20260504224505 | 57 | 17 | 3.0 | 8.0 | 0.01 | 0.07 | 0.01 | 92 | 1011.4 |
| 20260504224414 | 57 | 11 | 3.0 | 8.0 | 0.01 | 0.00 | 0.00 | 92 | 1011.4 |
| 20260504224006 | 57 | 24 | 3.0 | 8.0 | 0.01 | 0.07 | 0.01 | 92 | 1011.4 |
| 20260504223645 | 57 | 42 | 4.0 | 8.0 | 0.01 | 0.00 | 0.00 | 92 | 1011.4 |
| 20260504223506 | 57 | 24 | 4.0 | 8.0 | 0.01 | 0.07 | 0.01 | 92 | 1011.4 |
| 20260504223400 | 57 | 13 | 3.0 | 8.0 | 0.01 | 0.00 | 0.00 | 92 | 1011.5 |
| 20260504223134 | 57 | 13 | 3.0 | 8.0 | 0.01 | 0.00 | 0.00 | 92 | 1011.5 |
| 20260504223006 | 57 | 16 | 3.0 | 8.0 | 0.01 | 0.07 | 0.01 | 92 | 1011.5 |
| 20260504222859 | 57 | 5 | 3.0 | 8.0 | 0.01 | 0.00 | 0.00 | 92 | 1011.5 |
| 20260504222506 | 57 | 8 | 3.0 | 7.0 | 0.01 | 0.07 | 0.01 | 92 | 1011.5 |
| 20260504222141 | 57 | 19 | 3.0 | 5.0 | 0.01 | 0.00 | 0.00 | 92 | 1011.5 |
| 20260504222006 | 57 | 13 | 3.0 | 5.0 | 0.01 | 0.07 | 0.01 | 91 | 1011.5 |
| 20260504221630 | 57 | 11 | 3.0 | 9.0 | 0.01 | 0.00 | 0.00 | 91 | 1011.5 |
| 20260504221526 | 57 | 18 | 3.0 | 9.0 | 0.01 | 0.07 | 0.01 | 91 | 1011.5 |
| 20260504221143 | 57 | 0 | 3.0 | 9.0 | 0.00 | 0.00 | 0.00 | 91 | 1011.5 |
| 20260504221006 | 57 | 22 | 4.0 | 9.0 | 0.00 | 0.06 | 0.00 | 91 | 1011.6 |
| 20260504220809 | 57 | 40 | 3.0 | 5.0 | 0.00 | 0.00 | 0.00 | 91 | 1011.6 |
| 20260504220645 | 57 | 24 | 3.0 | 8.0 | 0.00 | 0.00 | 0.00 | 91 | 1011.6 |
| 20260504220505 | 57 | 19 | 3.0 | 6.0 | 0.00 | 0.06 | 0.00 | 91 | 1011.7 |
| 20260504220034 | 57 | 12 | 3.0 | 5.0 | 0.00 | 0.06 | 0.00 | 91 | 1011.6 |
| 20260504215638 | 57 | 16 | 3.0 | 6.0 | 0.00 | 0.00 | 0.00 | 91 | 1011.7 |
| 20260504215505 | 57 | 9 | 3.0 | 6.0 | 0.00 | 0.06 | 0.06 | 91 | 1011.7 |
| 20260504215334 | 58 | 11 | 2.0 | 5.0 | 0.00 | 0.00 | 0.00 | 91 | 1011.8 |
| 20260504215218 | 58 | 0 | 2.0 | 6.0 | 0.00 | 0.00 | 0.00 | 91 | 1011.7 |
| 20260504215026 | 58 | 16 | 2.0 | 6.0 | 0.00 | 0.06 | 0.06 | 91 | 1011.8 |
| 20260504214505 | 58 | 22 | 2.0 | 5.0 | 0.00 | 0.06 | 0.06 | 91 | 1011.9 |
| 20260504214200 | 58 | 28 | 3.0 | 7.0 | 0.00 | 0.00 | 0.00 | 90 | 1011.9 |
| 20260504214133 | 58 | 22 | 2.0 | 5.0 | 0.00 | 0.00 | 0.00 | 91 | 1011.9 |
| 20260504214006 | 58 | 17 | 2.0 | 7.0 | 0.00 | 0.06 | 0.06 | 91 | 1012.0 |
| 20260504213505 | 58 | 14 | 3.0 | 7.0 | 0.00 | 0.06 | 0.06 | 90 | 1012.0 |
| 20260504213128 | 58 | 14 | 3.0 | 7.0 | 0.00 | 0.00 | 0.00 | 90 | 1012.0 |
| 20260504213006 | 58 | 14 | 3.0 | 7.0 | 0.00 | 0.06 | 0.06 | 90 | 1012.0 |
| 20260504212636 | 58 | 26 | 2.0 | 7.0 | 0.01 | 0.00 | 0.00 | 90 | 1012.0 |
| 20260504212505 | 58 | 18 | 2.0 | 7.0 | 0.01 | 0.06 | 0.06 | 90 | 1012.1 |
| 20260504212129 | 58 | 355 | 2.0 | 5.0 | 0.01 | 0.00 | 0.00 | 90 | 1012.0 |
| 20260504212026 | 58 | 21 | 2.0 | 5.0 | 0.01 | 0.06 | 0.06 | 90 | 1012.1 |
| 20260504211621 | 58 | 32 | 2.0 | 5.0 | 0.02 | 0.00 | 0.00 | 90 | 1012.0 |
| 20260504211505 | 58 | 21 | 2.0 | 5.0 | 0.02 | 0.06 | 0.06 | 90 | 1012.0 |
| 20260504211350 | 58 | 12 | 3.0 | 7.0 | 0.02 | 0.00 | 0.00 | 90 | 1012.0 |
| 20260504211006 | 58 | 18 | 3.0 | 7.0 | 0.03 | 0.06 | 0.06 | 90 | 1012.0 |
| 20260504210631 | 58 | 15 | 3.0 | 7.0 | 0.04 | 0.00 | 0.00 | 90 | 1012.0 |
| 20260504210506 | 58 | 17 | 3.0 | 7.0 | 0.04 | 0.06 | 0.06 | 90 | 1012.1 |
| 20260504210123 | 58 | 15 | 3.0 | 8.0 | 0.04 | 0.00 | 0.00 | 89 | 1012.0 |
| 20260504210007 | 58 | 19 | 3.0 | 8.0 | 0.04 | 0.06 | 0.06 | 89 | 1012.0 |
| 20260504205617 | 58 | 5 | 3.0 | 8.0 | 0.04 | 0.00 | 0.00 | 89 | 1012.0 |
| 20260504205505 | 58 | 20 | 3.0 | 8.0 | 0.04 | 0.06 | 0.06 | 89 | 1012.0 |
| 20260504205125 | 59 | 9 | 4.0 | 8.0 | 0.04 | 0.00 | 0.00 | 89 | 1012.0 |
| 20260504205006 | 59 | 20 | 3.0 | 8.0 | 0.04 | 0.06 | 0.06 | 89 | 1012.1 |
| 20260504204617 | 59 | 26 | 3.0 | 6.0 | 0.04 | 0.00 | 0.00 | 89 | 1012.0 |
| 20260504204547 | 59 | 15 | 3.0 | 7.0 | 0.04 | 0.00 | 0.00 | 88 | 1012.0 |
| 20260504204507 | 59 | 22 | 3.0 | 6.0 | 0.04 | 0.06 | 0.06 | 89 | 1012.0 |
| 20260504204234 | 59 | 16 | 3.0 | 7.0 | 0.04 | 0.00 | 0.00 | 89 | 1011.9 |
| 20260504204005 | 59 | 21 | 3.0 | 7.0 | 0.04 | 0.06 | 0.06 | 89 | 1012.0 |
| 20260504203527 | 59 | 18 | 3.0 | 7.0 | 0.04 | 0.06 | 0.06 | 88 | 1012.0 |
| 20260504203122 | 59 | 343 | 4.0 | 9.0 | 0.04 | 0.00 | 0.00 | 88 | 1011.9 |
| 20260504203026 | 59 | 23 | 4.0 | 9.0 | 0.04 | 0.06 | 0.06 | 88 | 1011.9 |
| 20260504202619 | 60 | 14 | 4.0 | 9.0 | 0.03 | 0.00 | 0.00 | 88 | 1011.9 |
| 20260504202506 | 60 | 22 | 4.0 | 9.0 | 0.03 | 0.06 | 0.06 | 88 | 1011.9 |
| 20260504202110 | 60 | 355 | 2.0 | 9.0 | 0.03 | 0.00 | 0.00 | 87 | 1011.9 |
| 20260504202006 | 60 | 16 | 2.0 | 9.0 | 0.03 | 0.06 | 0.06 | 87 | 1011.9 |
| 20260504202000 | 60 | 31 | 4.0 | 9.0 | 0.00 | 0.00 | 0.00 | 86 | 1011.9 |
| 20260504201700 | 60 | 15 | 3.0 | 12.0 | 0.02 | 0.00 | 0.00 | 87 | 1011.9 |
| 20260504201505 | 60 | 20 | 3.0 | 12.0 | 0.02 | 0.05 | 0.05 | 87 | 1011.9 |
| 20260504201300 | 60 | 15 | 4.0 | 12.0 | 0.01 | 0.00 | 0.00 | 87 | 1011.8 |
| 20260504201006 | 60 | 23 | 4.0 | 12.0 | 0.01 | 0.03 | 0.03 | 87 | 1011.9 |
| 20260504200506 | 60 | 26 | 4.0 | 9.0 | 0.00 | 0.02 | 0.02 | 86 | 1011.8 |
| 20260504200133 | 60 | 48 | 3.0 | 8.0 | 0.00 | 0.00 | 0.00 | 86 | 1011.7 |
| 20260504200006 | 60 | 28 | 3.0 | 8.0 | 0.00 | 0.02 | 0.02 | 86 | 1011.8 |
| 20260504195839 | 60 | 34 | 3.0 | 8.0 | 0.00 | 0.00 | 0.00 | 86 | 1011.7 |
| 20260504195708 | 60 | 0 | 5.0 | 11.0 | 0.00 | 0.00 | 0.00 | 85 | 1011.5 |
| 20260504195625 | 60 | 34 | 3.0 | 8.0 | 0.00 | 0.00 | 0.00 | 86 | 1011.7 |
| 20260504195505 | 60 | 24 | 3.0 | 9.0 | 0.00 | 0.02 | 0.02 | 86 | 1011.8 |
| 20260504195206 | 60 | 38 | 4.0 | 11.0 | 0.00 | 0.00 | 0.00 | 86 | 1011.7 |
| 20260504195005 | 60 | 22 | 4.0 | 11.0 | 0.00 | 0.02 | 0.02 | 86 | 1011.7 |
| 20260504194505 | 60 | 24 | 5.0 | 11.0 | 0.00 | 0.02 | 0.02 | 85 | 1011.6 |
| 20260504194114 | 60 | 24 | 5.0 | 11.0 | 0.00 | 0.00 | 0.00 | 85 | 1011.5 |
| 20260504194006 | 60 | 26 | 5.0 | 11.0 | 0.00 | 0.02 | 0.02 | 85 | 1011.6 |
| 20260504193613 | 60 | 12 | 5.0 | 11.0 | 0.00 | 0.00 | 0.00 | 85 | 1011.6 |
| 20260504193505 | 60 | 26 | 5.0 | 10.0 | 0.00 | 0.02 | 0.02 | 85 | 1011.6 |
| 20260504193341 | 61 | 28 | 5.0 | 11.0 | 0.00 | 0.00 | 0.00 | 85 | 1011.5 |
| 20260504193211 | 61 | 58 | 5.0 | 11.0 | 0.00 | 0.00 | 0.00 | 85 | 1011.6 |
| 20260504193006 | 61 | 25 | 5.0 | 11.0 | 0.00 | 0.02 | 0.02 | 85 | 1011.6 |
| 20260504192526 | 61 | 24 | 5.0 | 11.0 | 0.00 | 0.02 | 0.02 | 85 | 1011.5 |
| 20260504192105 | 61 | 29 | 5.0 | 11.0 | 0.00 | 0.00 | 0.00 | 85 | 1011.4 |
| 20260504192006 | 61 | 22 | 5.0 | 11.0 | 0.00 | 0.02 | 0.02 | 85 | 1011.5 |
| 20260504191618 | 61 | 0 | 5.0 | 11.0 | 0.00 | 0.00 | 0.00 | 85 | 1011.5 |
| 20260504191527 | 61 | 24 | 5.0 | 11.0 | 0.00 | 0.02 | 0.02 | 85 | 1011.5 |
| 20260504191127 | 61 | 23 | 5.0 | 11.0 | 0.00 | 0.00 | 0.00 | 85 | 1011.4 |
| 20260504191006 | 61 | 22 | 5.0 | 11.0 | 0.00 | 0.02 | 0.02 | 85 | 1011.5 |
| 20260504190626 | 62 | 355 | 5.0 | 10.0 | 0.00 | 0.00 | 0.00 | 85 | 1011.4 |
| 20260504190506 | 62 | 18 | 5.0 | 10.0 | 0.00 | 0.02 | 0.02 | 85 | 1011.4 |
| 20260504190244 | 62 | 15 | 4.0 | 9.0 | 0.00 | 0.00 | 0.00 | 85 | 1011.2 |
| 20260504190120 | 62 | 355 | 5.0 | 10.0 | 0.00 | 0.00 | 0.00 | 85 | 1011.3 |
| 20260504190006 | 62 | 19 | 5.0 | 10.0 | 0.00 | 0.02 | 0.02 | 85 | 1011.4 |
| 20260504185709 | 62 | 24 | 5.0 | 10.0 | 0.00 | 0.00 | 0.00 | 85 | 1011.4 |
| 20260504185505 | 62 | 16 | 5.0 | 10.0 | 0.00 | 0.02 | 0.02 | 85 | 1011.4 |
| 20260504185120 | 62 | 27 | 4.0 | 10.0 | 0.00 | 0.00 | 0.00 | 85 | 1011.3 |
| 20260504185006 | 62 | 12 | 4.0 | 10.0 | 0.00 | 0.02 | 0.02 | 85 | 1011.3 |
| 20260504184505 | 62 | 13 | 4.0 | 9.0 | 0.00 | 0.03 | 0.02 | 85 | 1011.2 |
| 20260504184106 | 63 | 355 | 4.0 | 9.0 | 0.00 | 0.00 | 0.00 | 85 | 1011.1 |
| 20260504184005 | 63 | 15 | 4.0 | 9.0 | 0.00 | 0.04 | 0.02 | 85 | 1011.2 |
| 20260504183556 | 63 | 15 | 3.0 | 8.0 | 0.00 | 0.00 | 0.00 | 85 | 1011.2 |
| 20260504183525 | 63 | 9 | 3.0 | 8.0 | 0.00 | 0.04 | 0.02 | 85 | 1011.2 |
| 20260504183051 | 63 | 14 | 3.0 | 7.0 | 0.00 | 0.00 | 0.00 | 85 | 1011.2 |
| 20260504183005 | 63 | 1 | 3.0 | 7.0 | 0.00 | 0.04 | 0.02 | 85 | 1011.2 |
| 20260504182554 | 63 | 5 | 3.0 | 6.0 | 0.00 | 0.00 | 0.00 | 84 | 1011.3 |
| 20260504182505 | 63 | 359 | 2.0 | 6.0 | 0.00 | 0.04 | 0.02 | 84 | 1011.3 |
| 20260504182059 | 63 | 343 | 3.0 | 8.0 | 0.00 | 0.00 | 0.00 | 84 | 1011.2 |
| 20260504182006 | 63 | 357 | 3.0 | 8.0 | 0.00 | 0.04 | 0.02 | 83 | 1011.4 |
| 20260504181551 | 63 | 348 | 3.0 | 8.0 | 0.00 | 0.00 | 0.00 | 83 | 1011.3 |
| 20260504181505 | 63 | 1 | 3.0 | 8.0 | 0.00 | 0.04 | 0.02 | 83 | 1011.3 |
| 20260504181054 | 63 | 346 | 3.0 | 6.0 | 0.00 | 0.00 | 0.00 | 83 | 1011.2 |
| 20260504181005 | 64 | 1 | 3.0 | 6.0 | 0.00 | 0.04 | 0.02 | 83 | 1011.3 |
| 20260504180550 | 64 | 332 | 2.0 | 6.0 | 0.00 | 0.00 | 0.00 | 82 | 1011.2 |
| 20260504180506 | 64 | 2 | 2.0 | 6.0 | 0.00 | 0.04 | 0.02 | 82 | 1011.3 |
| 20260504180115 | 64 | 23 | 3.0 | 10.0 | 0.00 | 0.00 | 0.00 | 82 | 1011.2 |
| 20260504180006 | 64 | 3 | 3.0 | 10.0 | 0.00 | 0.05 | 0.02 | 82 | 1011.3 |
| 20260504175552 | 64 | 345 | 2.0 | 10.0 | 0.00 | 0.00 | 0.00 | 81 | 1011.2 |
| 20260504175505 | 64 | 5 | 2.0 | 10.0 | 0.00 | 0.06 | 0.02 | 81 | 1011.2 |
| 20260504175111 | 64 | 26 | 1.0 | 4.0 | 0.00 | 0.00 | 0.00 | 81 | 1011.1 |
| 20260504175006 | 64 | 29 | 1.0 | 3.0 | 0.00 | 0.06 | 0.02 | 81 | 1011.1 |
| 20260504174604 | 64 | 29 | 1.0 | 3.0 | 0.00 | 0.00 | 0.00 | 81 | 1011.2 |
| 20260504174526 | 64 | 29 | 1.0 | 3.0 | 0.00 | 0.07 | 0.02 | 81 | 1011.2 |
| 20260504174104 | 64 | 29 | 1.0 | 3.0 | 0.00 | 0.00 | 0.00 | 81 | 1011.2 |
| 20260504174005 | 64 | 25 | 1.0 | 3.0 | 0.00 | 0.08 | 0.02 | 81 | 1011.2 |
| 20260504173548 | 64 | 31 | 2.0 | 4.0 | 0.00 | 0.00 | 0.00 | 81 | 1011.2 |
| 20260504173505 | 64 | 19 | 2.0 | 4.0 | 0.00 | 0.11 | 0.02 | 81 | 1011.2 |
| 20260504173258 | 64 | 11 | 2.0 | 4.0 | 0.00 | 0.00 | 0.00 | 81 | 1011.3 |
| 20260504173126 | 64 | 346 | 2.0 | 4.0 | 0.00 | 0.00 | 0.00 | 81 | 1011.3 |
| 20260504173005 | 64 | 14 | 2.0 | 4.0 | 0.00 | 0.13 | 0.02 | 81 | 1011.3 |
| 20260504172505 | 64 | 6 | 2.0 | 4.0 | 0.00 | 0.13 | 0.02 | 81 | 1011.3 |
| 20260504172225 | 65 | 5 | 2.0 | 4.0 | 0.00 | 0.00 | 0.00 | 81 | 1011.3 |
| 20260504172111 | 64 | 0 | 2.0 | 4.0 | 0.00 | 0.00 | 0.00 | 81 | 1011.2 |
| 20260504172006 | 64 | 13 | 2.0 | 4.0 | 0.00 | 0.13 | 0.02 | 81 | 1011.2 |
| 20260504171506 | 64 | 21 | 2.0 | 4.0 | 0.00 | 0.15 | 0.02 | 81 | 1011.3 |
| 20260504171036 | 65 | 15 | 2.0 | 5.0 | 0.00 | 0.00 | 0.00 | 80 | 1011.3 |
| 20260504171026 | 64 | 19 | 2.0 | 5.0 | 0.00 | 0.16 | 0.02 | 81 | 1011.3 |
| 20260504170534 | 65 | 31 | 2.0 | 5.0 | 0.00 | 0.00 | 0.00 | 81 | 1011.2 |
| 20260504170505 | 64 | 4 | 2.0 | 5.0 | 0.00 | 0.19 | 0.02 | 81 | 1011.3 |
| 20260504151005 | 64 | 334 | 1.0 | 3.0 | 0.00 | 0.56 | 0.02 | 83 | 1011.6 |
| 20260504150505 | 64 | 339 | 1.0 | 4.0 | 0.00 | 0.56 | 0.02 | 83 | 1011.6 |
| 20260504141005 | 64 | 274 | 1.0 | 3.0 | 0.00 | 0.56 | 0.02 | 81 | 1012.1 |
| 20260504140956 | 64 | 233 | 1.0 | 3.0 | 0.00 | 0.00 | 0.00 | 81 | 1012.0 |
| 20260504140506 | 64 | 272 | 0.0 | 2.0 | 0.00 | 0.56 | 0.02 | 80 | 1012.2 |
| 20260504140451 | 64 | 309 | 0.0 | 2.0 | 0.00 | 0.00 | 0.00 | 80 | 1012.2 |
| 20260504130507 | 63 | 360 | 1.0 | 3.0 | 0.00 | 0.56 | 0.02 | 88 | 1012.6 |
| 20260504130418 | 63 | 0 | 1.0 | 3.0 | 0.00 | 0.00 | 0.00 | 88 | 1012.5 |